Regional Weather Roundup
Issued by NWS

Home | Current Version | Previous Version | Graphics & Text | Print | Product List | Glossary On
Versions: 1 2 3 4 5 6 7 8 9 10 11 12 13 14 15 16 17 18 19 20 21 22 23 24 25 26 27 28 29 30 31 32 33 34 35 36 37 38 39 40 41 42 43 44 45 46 47 48 49 50
000
ASUS43 KDMX 250806
RWRIA

WEATHER ROUNDUP FOR IOWA
NATIONAL WEATHER SERVICE DES MOINES IA
300 AM CDT SAT MAR 25 2017

NOTE: "FAIR" INDICATES FEW OR NO CLOUDS BELOW 12,000 FEET WITH NO
SIGNIFICANT WEATHER AND/OR OBSTRUCTIONS TO VISIBILITY.

* - THESE STATIONS ARE NOT NWS STATIONS...THUS NOT UNDER NWS
QUALITY CONTROL.  THEY ALSO DO NOT REPORT WEATHER SUCH
AS PRECIPITATION OR FOG.

IAZ001>003-012>014-020>022-031>034-043>046-250900-
   NORTHWEST IOWA

CITY           SKY/WX    TMP DP  RH WIND       PRES   REMARKS
CARROLL *      CLOUDY    39  39 100 NE17      29.95F WCI  30
CHEROKEE *     CLOUDY    38  38 100 NE18G24   30.01F FOG     WCI  29
LE MARS *      CLOUDY    39  37  93 NE13G21   30.05S FOG     WCI  32
ORANGE CITY *  CLOUDY    37  37 100 NE9       30.05S FOG     WCI  31
SHELDON *      CLOUDY    37  37 100 NE17G24   30.04R FOG     WCI  28
SIOUX CITY     CLOUDY    39  38  96 N12       30.03F FOG     WCI  32
SPENCER        CLOUDY    38  37  97 NE23G29   30.04S FOG     WCI  27
STORM LAKE *   CLOUDY    37  37 100 NE23G30   29.99F FOG     WCI  26
$$

IAZ055>058-069>071-079>083-090>094-250900-
   SOUTHWEST IOWA

CITY           SKY/WX    TMP DP  RH WIND       PRES   REMARKS
ATLANTIC *     CLOUDY    41  41 100 NE20G28   29.90F FOG
AUDUBON *      CLOUDY    39  37  93 NE13G23   29.93F FOG     WCI  32
CLARINDA *     CLOUDY    45  45 100 NE14G20   29.87F
COUNCIL BLFS * CLOUDY    41  41 100 N25       29.90F
CRESTON *      FOG       43  43 100 NE21      29.86F VSB 1
HARLAN  *      CLOUDY    39  39 100 NE21G31   29.95F WCI  29
LAMONI         FOG       46  46 100 NE13      29.83F VSB 3/4
RED OAK *      CLOUDY    41  41 100 NE17G24   29.87F FOG
SHENANDOAH *   CLOUDY    43  43 100 NE16G24   29.87S
$$

IAZ047>049-059>061-072>074-084-250900-
   CENTRAL IOWA

CITY           SKY/WX    TMP DP  RH WIND       PRES   REMARKS
AMES           LGT RAIN  40  40 100 NE14G23   29.94F FOG     WCI  32
ANKENY *       CLOUDY    41  39  93 NE16      29.93F
BOONE *        CLOUDY    39  39 100 NE21G28   29.93F WCI  29
CHARITON *     FOG       45  45 100 NE14G21   29.86F VSB 1/4
DES MOINES     CLOUDY    44  41  89 NE13      29.91F
GRINNELL*      CLOUDY    42  41  96 NE20      29.93F FOG
KNOXVILLE *    FOG       46  45  93 NE10      29.87F VSB 1
MARSHALLTOWN   CLOUDY    40  39  97 NE17      29.95F WCI  31
NEWTON *       CLOUDY    43  41  93 NE17G23   29.91S FOG
PELLA *        CLOUDY    46  45  97 NE7       29.91F FOG
PERRY *        CLOUDY    41  40  95 NE17      29.93F FOG
$$

IAZ004>006-015-016-023>025-035-036-250900-
   NORTH CENTRAL IOWA

CITY           SKY/WX    TMP DP  RH WIND       PRES   REMARKS
ALGONA *       CLOUDY    39  39 100 NE20      30.02F FOG     WCI  30
CLARION *      CLOUDY    39  39 100 NE22G28   29.98F WCI  29
ESTHERVILLE    CLOUDY    37  37 100 NE20G26   30.05F FOG     WCI  27
FORT DODGE *   CLOUDY    39  36  87 NE12      29.99S WCI  32
MASON CITY     CLOUDY    38  36  92 NE17      30.04F WCI  28
FOREST CITY *  CLOUDY    37  36  93 NE14G23   30.03F WCI  29
WEBSTER CITY * CLOUDY    39  39 100 NE21      29.94F WCI  29
IOWA FALLS *   CLOUDY    39  37  93 NE14G22   29.99F WCI  31
$$

IAZ007>011-017>019-026>030-037>042-050>054-066-250900-
   NORTHEAST IOWA

CITY           SKY/WX    TMP DP  RH WIND       PRES   REMARKS
CEDAR RAPIDS   CLOUDY    42  42 100 NE18      29.95F FOG
CHARLES CITY * CLOUDY    37  37 100 E17G29    30.02F WCI  28
CLINTON *      LGT RAIN  41  39  93 E18       30.02F
DECORAH *      CLOUDY    37  36  93 E12G20    30.04F WCI  30
DUBUQUE        CLOUDY    38  37  97 NE20G25   30.03R WCI  28
MONTICELLO *   CLOUDY    41  39  93 E16G24    30.00F
OELWEIN *      MIX PCPN  37  37 100 NE20      30.00S WCI  27
WATERLOO       CLOUDY    39  37  92 NE16      30.00S WCI  30
$$

IAZ064-065-067-068-078-250900-
   EAST CENTRAL IOWA

CITY           SKY/WX    TMP DP  RH WIND       PRES   REMARKS
DAVENPORT      CLOUDY    43  41  93 E20       29.98F
IOWA CITY      CLOUDY    47  44  90 NE13G21   29.96F FOG
MUSCATINE *    CLOUDY    48  46  93 NE17G23   29.94F FOG
QUAD CITIES    CLOUDY    44  41  89 NE17      29.97F
$$

IAZ062-063-075>077-085>089-095>099-250900-
   SOUTHEAST IOWA

CITY           SKY/WX    TMP DP  RH WIND       PRES   REMARKS
BURLINGTON     LGT RAIN  55  55 100 E15       29.88F FOG
FAIRFIELD *    CLOUDY    54  54 100 E15       29.88F FOG
FORT MADISON * LGT RAIN  55  54  94 NE15G21   29.88F
KEOKUK *       CLOUDY    55  55 100 NE10G18   29.85F
OSKALOOSA *    FOG       48  48  99 NE16      29.89F VSB 1/2
CENTERVILLE *  CLOUDY    50  50 100 NE7G16    29.86F FOG
OTTUMWA        FOG       51  51 100 NE15      29.87F VSB 1/2
WASHINGTON *   LGT RAIN  50  50 100 NE18      29.92F
$$

ABBREVIATIONS USED IN REMARKS
   TC - TEMPERATURES IN CELSIUS
  WCI - WIND CHILL INDEX
   HX - HEAT INDEX
  VSB - VISIBILITY
$$




USA.gov is the U.S. government's official web portal to all federal, state and local government web resources and services.